GORIZONT 25 1 21922U 92017A 09004.76462161 .00000087 00000-0 10000-3 0 1318 2 21922 011.1717 044.0133 0026959 290.0070 069.7148 00.99852002 61311 GORIZONT 26 1 22041U 92043A 09004.89088152 -.00000229 00000-0 10000-3 0 7717 2 22041 011.0229 045.3768 0028756 102.2616 258.0563 00.99245594 60254 GORIZONT 27 1 22245U 92082A 09004.34834917 .00000026 00000-0 10000-3 0 4085 2 22245 010.9277 046.5986 0016889 216.0706 143.8293 01.00218241 63306 GORIZONT 28 1 22880U 93069A 09006.65578867 -.00000322 00000-0 10000-3 0 616 2 22880 010.4407 049.9412 0004163 263.3223 135.0075 01.00214783 55650 GORIZONT 29 1 22907U 93072A 09006.27365434 .00000132 00000-0 10000-3 0 6199 2 22907 010.4182 050.0478 0015193 199.7950 160.1382 01.00140118 55402 GORIZONT 30 1 23108U 94030A 09003.95893569 -.00000236 +00000-0 +10000-3 0 04526 2 23108 010.2547 051.4052 0003170 188.2590 171.7389 01.00322625053584 GORIZONT 31 1 23775U 96005A 09005.19598799 .00000051 00000-0 10000-3 0 7678 2 23775 009.1924 057.2418 0018768 064.8252 295.3513 00.99883673 47401 GORIZONT 32 1 23880U 96034A 09007.07215536 -.00000109 00000-0 10000-3 0 1108 2 23880 009.0558 058.3776 0003089 218.4798 201.4745 01.00277009 46228 GORIZONT 33 1 26372U 00029A 09007.03505836 .00000034 00000-0 10000-3 0 5040 2 26372 006.2892 067.4942 0002140 278.3055 199.2293 01.00150260 31552